Year,Month,Day,Hour,Minute,Value (Times are PST for temperature in C)
2017,06,26,00,00,19.10
2017,06,26,00,01,19.10
2017,06,26,00,02,19.00
2017,06,26,00,03,18.90
2017,06,26,00,04,18.90
2017,06,26,00,05,18.90
2017,06,26,00,06,19.10
2017,06,26,00,07,19.10
2017,06,26,00,08,19.10
2017,06,26,00,09,19.10
2017,06,26,00,10,19.20
2017,06,26,00,11,19.20
2017,06,26,00,12,19.30
2017,06,26,00,13,19.30
2017,06,26,00,14,19.30
2017,06,26,00,15,19.30
2017,06,26,00,16,19.30
2017,06,26,00,17,19.30
2017,06,26,00,18,19.30
2017,06,26,00,19,19.30
2017,06,26,00,20,19.30
2017,06,26,00,21,19.20
2017,06,26,00,22,19.20
2017,06,26,00,23,19.20
2017,06,26,00,24,19.20
2017,06,26,00,25,19.30
2017,06,26,00,26,19.30
2017,06,26,00,27,19.30
2017,06,26,00,28,19.30
2017,06,26,00,29,19.40
2017,06,26,00,30,19.40
2017,06,26,00,31,19.50
2017,06,26,00,32,19.50
2017,06,26,00,33,19.50
2017,06,26,00,34,19.60
2017,06,26,00,35,19.60
2017,06,26,00,36,19.60
2017,06,26,00,37,19.60
2017,06,26,00,38,19.60
2017,06,26,00,39,19.60
2017,06,26,00,40,19.60
2017,06,26,00,41,19.50
2017,06,26,00,42,19.50
2017,06,26,00,43,19.40
2017,06,26,00,44,19.30
2017,06,26,00,45,19.20
2017,06,26,00,46,19.10
2017,06,26,00,47,19.10
2017,06,26,00,48,19.00
2017,06,26,00,49,18.90
2017,06,26,00,50,18.90
2017,06,26,00,51,18.90
2017,06,26,00,52,18.80
2017,06,26,00,53,18.80
2017,06,26,00,54,18.80
2017,06,26,00,55,18.80
2017,06,26,00,56,18.80
2017,06,26,00,57,18.90
2017,06,26,00,58,18.90
2017,06,26,00,59,18.90
2017,06,26,01,00,18.90
2017,06,26,01,01,18.90
2017,06,26,01,02,18.80
2017,06,26,01,03,18.70
2017,06,26,01,04,18.70
2017,06,26,01,05,18.60
2017,06,26,01,06,18.60
2017,06,26,01,07,18.40
2017,06,26,01,08,18.30
2017,06,26,01,09,18.20
2017,06,26,01,10,18.10
2017,06,26,01,11,18.10
2017,06,26,01,12,18.20
2017,06,26,01,13,18.20
2017,06,26,01,14,18.20
2017,06,26,01,15,18.20
2017,06,26,01,16,18.30
2017,06,26,01,17,18.40
2017,06,26,01,18,18.40
2017,06,26,01,19,18.50
2017,06,26,01,20,18.60
2017,06,26,01,21,18.60
2017,06,26,01,22,18.70
2017,06,26,01,23,18.70
2017,06,26,01,24,18.70
2017,06,26,01,25,18.70
2017,06,26,01,26,18.70
2017,06,26,01,27,18.70
2017,06,26,01,28,18.70
2017,06,26,01,29,18.80
2017,06,26,01,30,18.90
2017,06,26,01,31,18.90
2017,06,26,01,32,19.10
2017,06,26,01,33,19.20
2017,06,26,01,34,19.40
2017,06,26,01,35,19.60
2017,06,26,01,36,19.80
2017,06,26,01,37,20.00
2017,06,26,01,38,20.20
2017,06,26,01,39,20.30
2017,06,26,01,40,20.40
2017,06,26,01,41,20.60
2017,06,26,01,42,20.80
2017,06,26,01,43,21.00
2017,06,26,01,44,21.10
2017,06,26,01,45,21.30
2017,06,26,01,46,21.40
2017,06,26,01,47,21.60
2017,06,26,01,48,21.60
2017,06,26,01,49,21.70
2017,06,26,01,50,21.80
2017,06,26,01,51,22.00
2017,06,26,01,52,22.00
2017,06,26,01,53,22.10
2017,06,26,01,54,22.10
2017,06,26,01,55,22.20
2017,06,26,01,56,22.20
2017,06,26,01,57,22.30
2017,06,26,01,58,22.30
2017,06,26,01,59,22.40
2017,06,26,02,00,22.40
2017,06,26,02,01,22.50
2017,06,26,02,02,22.50
2017,06,26,02,03,22.60
2017,06,26,02,04,22.70
2017,06,26,02,05,22.80
2017,06,26,02,06,22.80
2017,06,26,02,07,22.80
2017,06,26,02,08,22.80
2017,06,26,02,09,22.70
2017,06,26,02,10,22.60
2017,06,26,02,11,22.40
2017,06,26,02,12,22.30
2017,06,26,02,13,22.20
2017,06,26,02,14,22.10
2017,06,26,02,15,22.10
2017,06,26,02,16,22.10
2017,06,26,02,17,22.10
2017,06,26,02,18,22.10
2017,06,26,02,19,22.10
2017,06,26,02,20,22.20
2017,06,26,02,21,22.20
2017,06,26,02,22,22.30
2017,06,26,02,23,22.30
2017,06,26,02,24,22.30
2017,06,26,02,25,22.30
2017,06,26,02,26,22.30
2017,06,26,02,27,22.40
2017,06,26,02,28,22.40
2017,06,26,02,29,22.30
2017,06,26,02,30,22.30
2017,06,26,02,31,22.20
2017,06,26,02,32,22.10
2017,06,26,02,33,22.00
2017,06,26,02,34,21.90
2017,06,26,02,35,21.80
2017,06,26,02,36,21.60
2017,06,26,02,37,21.50
2017,06,26,02,38,21.40
2017,06,26,02,39,21.30
2017,06,26,02,40,21.20
2017,06,26,02,41,21.10
2017,06,26,02,42,21.10
2017,06,26,02,43,21.00
2017,06,26,02,44,21.10
2017,06,26,02,45,21.10
2017,06,26,02,46,21.20
2017,06,26,02,47,21.20
2017,06,26,02,48,21.20
2017,06,26,02,49,21.20
2017,06,26,02,50,21.20
2017,06,26,02,51,21.10
2017,06,26,02,52,21.10
2017,06,26,02,53,21.00
2017,06,26,02,54,21.00
2017,06,26,02,55,20.90
2017,06,26,02,56,20.90
2017,06,26,02,57,20.90
2017,06,26,02,58,21.00
2017,06,26,02,59,21.00
2017,06,26,03,00,21.00
2017,06,26,03,01,21.00
2017,06,26,03,02,20.90
2017,06,26,03,03,20.90
2017,06,26,03,04,20.90
2017,06,26,03,05,20.80
2017,06,26,03,06,20.70
2017,06,26,03,07,20.60
2017,06,26,03,08,20.50
2017,06,26,03,09,20.50
2017,06,26,03,10,20.40
2017,06,26,03,11,20.30
2017,06,26,03,12,20.20
2017,06,26,03,13,20.20
2017,06,26,03,14,20.10
2017,06,26,03,15,20.00
2017,06,26,03,16,19.90
2017,06,26,03,17,19.90
2017,06,26,03,18,19.90
2017,06,26,03,19,19.90
2017,06,26,03,20,19.80
2017,06,26,03,21,19.80
2017,06,26,03,22,19.70
2017,06,26,03,23,19.60
2017,06,26,03,24,19.50
2017,06,26,03,25,19.40
2017,06,26,03,26,19.20
2017,06,26,03,27,19.10
2017,06,26,03,28,18.90
2017,06,26,03,29,18.80
2017,06,26,03,30,18.60
2017,06,26,03,31,18.50
2017,06,26,03,32,18.40
2017,06,26,03,33,18.20
2017,06,26,03,34,18.10
2017,06,26,03,35,18.00
2017,06,26,03,36,17.90
2017,06,26,03,37,17.80
2017,06,26,03,38,17.80
2017,06,26,03,39,17.70
2017,06,26,03,40,17.60
2017,06,26,03,41,17.60
2017,06,26,03,42,17.50
2017,06,26,03,43,17.50
2017,06,26,03,44,17.50
2017,06,26,03,45,17.50
2017,06,26,03,46,17.50
2017,06,26,03,47,17.50
2017,06,26,03,48,17.60
2017,06,26,03,49,17.70
2017,06,26,03,50,17.70
2017,06,26,03,51,17.80
2017,06,26,03,52,17.90
2017,06,26,03,53,17.90
2017,06,26,03,54,17.80
2017,06,26,03,55,17.80
2017,06,26,03,56,17.70
2017,06,26,03,57,17.70
2017,06,26,03,58,17.70
2017,06,26,03,59,17.70
2017,06,26,04,00,17.70
2017,06,26,04,01,17.60
2017,06,26,04,02,17.60
2017,06,26,04,03,17.50
2017,06,26,04,04,17.50
2017,06,26,04,05,17.50
2017,06,26,04,06,17.50
2017,06,26,04,07,17.50
2017,06,26,04,08,17.50
2017,06,26,04,09,17.50
2017,06,26,04,10,17.50
2017,06,26,04,11,17.50
2017,06,26,04,12,17.50
2017,06,26,04,13,17.50
2017,06,26,04,14,17.50
2017,06,26,04,15,17.50
2017,06,26,04,16,17.50
2017,06,26,04,17,17.60
2017,06,26,04,18,17.60
2017,06,26,04,19,17.60
2017,06,26,04,20,17.60
2017,06,26,04,21,17.60
2017,06,26,04,22,17.60
2017,06,26,04,23,17.60
2017,06,26,04,24,17.60
2017,06,26,04,25,17.60
2017,06,26,04,26,17.70
2017,06,26,04,27,17.80
2017,06,26,04,28,17.80
2017,06,26,04,29,17.90
2017,06,26,04,30,17.90
2017,06,26,04,31,17.90
2017,06,26,04,32,17.80
2017,06,26,04,33,17.80
2017,06,26,04,34,17.70
2017,06,26,04,35,17.60
2017,06,26,04,36,17.60
2017,06,26,04,37,17.50
2017,06,26,04,38,17.50
2017,06,26,04,39,17.40
2017,06,26,04,40,17.40
2017,06,26,04,41,17.30
2017,06,26,04,42,17.30
2017,06,26,04,43,17.30
2017,06,26,04,44,17.30
2017,06,26,04,45,17.20
2017,06,26,04,46,17.20
2017,06,26,04,47,17.20
2017,06,26,04,48,17.20
2017,06,26,04,49,17.10
2017,06,26,04,50,17.10
2017,06,26,04,51,17.10
2017,06,26,04,52,17.10
2017,06,26,04,53,17.10
2017,06,26,04,54,17.10
2017,06,26,04,55,17.10
2017,06,26,04,56,17.10
2017,06,26,04,57,17.10
2017,06,26,04,58,17.10
2017,06,26,04,59,17.10
2017,06,26,05,00,17.10
2017,06,26,05,01,17.20
2017,06,26,05,02,17.20
2017,06,26,05,03,17.20
2017,06,26,05,04,17.20
2017,06,26,05,05,17.20
2017,06,26,05,06,17.10
2017,06,26,05,07,17.10
2017,06,26,05,08,17.00
2017,06,26,05,09,17.00
2017,06,26,05,10,16.90
2017,06,26,05,11,16.80
2017,06,26,05,12,16.70
2017,06,26,05,13,16.50
2017,06,26,05,14,16.40
2017,06,26,05,15,16.30
2017,06,26,05,16,16.20
2017,06,26,05,17,16.10
2017,06,26,05,18,16.10
2017,06,26,05,19,16.10
2017,06,26,05,20,16.00
2017,06,26,05,21,15.90
2017,06,26,05,22,15.90
2017,06,26,05,23,15.80
2017,06,26,05,24,15.80
2017,06,26,05,25,15.80
2017,06,26,05,26,15.80
2017,06,26,05,27,15.80
2017,06,26,05,28,15.80
2017,06,26,05,29,15.80
2017,06,26,05,30,15.70
2017,06,26,05,31,15.70
2017,06,26,05,32,15.70
2017,06,26,05,33,15.70
2017,06,26,05,34,15.70
2017,06,26,05,35,15.70
2017,06,26,05,36,15.60
2017,06,26,05,37,15.60
2017,06,26,05,38,15.60
2017,06,26,05,39,15.60
2017,06,26,05,40,15.60
2017,06,26,05,41,15.60
2017,06,26,05,42,15.60
2017,06,26,05,43,15.60
2017,06,26,05,44,15.60
2017,06,26,05,45,15.60
2017,06,26,05,46,15.60
2017,06,26,05,47,15.60
2017,06,26,05,48,15.60
2017,06,26,05,49,15.50
2017,06,26,05,50,15.50
2017,06,26,05,51,15.50
2017,06,26,05,52,15.50
2017,06,26,05,53,15.50
2017,06,26,05,54,15.50
2017,06,26,05,55,15.50
2017,06,26,05,56,15.50
2017,06,26,05,57,15.50
2017,06,26,05,58,15.50
2017,06,26,05,59,15.50
2017,06,26,06,00,15.50
2017,06,26,06,01,15.50
2017,06,26,06,02,15.60
2017,06,26,06,03,15.60
2017,06,26,06,04,15.70
2017,06,26,06,05,15.80
2017,06,26,06,06,15.80
2017,06,26,06,07,15.80
2017,06,26,06,08,15.80
2017,06,26,06,09,15.90
2017,06,26,06,10,15.90
2017,06,26,06,11,16.00
2017,06,26,06,12,16.10
2017,06,26,06,13,16.10
2017,06,26,06,14,16.20
2017,06,26,06,15,16.20
2017,06,26,06,16,16.30
2017,06,26,06,17,16.30
2017,06,26,06,18,16.40
2017,06,26,06,19,16.40
2017,06,26,06,20,16.40
2017,06,26,06,21,16.50
2017,06,26,06,22,16.60
2017,06,26,06,23,16.60
2017,06,26,06,24,16.60
2017,06,26,06,25,16.60
2017,06,26,06,26,16.60
2017,06,26,06,27,16.40
2017,06,26,06,28,16.40
2017,06,26,06,29,16.40
2017,06,26,06,30,16.30
2017,06,26,06,31,16.20
2017,06,26,06,32,16.10
2017,06,26,06,33,16.00
2017,06,26,06,34,15.90
2017,06,26,06,35,15.70
2017,06,26,06,36,15.60
2017,06,26,06,37,15.40
2017,06,26,06,38,15.30
2017,06,26,06,39,15.10
2017,06,26,06,40,15.00
2017,06,26,06,41,14.90
2017,06,26,06,42,14.80
2017,06,26,06,43,14.70
2017,06,26,06,44,14.60
2017,06,26,06,45,14.50
2017,06,26,06,46,14.40
2017,06,26,06,47,14.30
2017,06,26,06,48,14.30
2017,06,26,06,49,14.20
2017,06,26,06,50,14.20
2017,06,26,06,51,14.20
2017,06,26,06,52,14.20
2017,06,26,06,53,14.20
2017,06,26,06,54,14.10
2017,06,26,06,55,14.00
2017,06,26,06,56,13.90
2017,06,26,06,57,13.90
2017,06,26,06,58,13.90
2017,06,26,06,59,14.00
2017,06,26,07,00,14.00
2017,06,26,07,01,14.10
2017,06,26,07,02,14.10
2017,06,26,07,03,14.20
2017,06,26,07,04,14.30
2017,06,26,07,05,14.40
2017,06,26,07,06,14.50
2017,06,26,07,07,14.50
2017,06,26,07,08,14.60
2017,06,26,07,09,14.60
2017,06,26,07,10,14.60
2017,06,26,07,11,14.70
2017,06,26,07,12,14.70
2017,06,26,07,13,14.70
2017,06,26,07,14,14.70
2017,06,26,07,15,14.70
2017,06,26,07,16,14.70
2017,06,26,07,17,14.70
2017,06,26,07,18,14.80
2017,06,26,07,19,14.90
2017,06,26,07,20,15.00
2017,06,26,07,21,15.10
2017,06,26,07,22,15.20
2017,06,26,07,23,15.30
2017,06,26,07,24,15.40
2017,06,26,07,25,15.50
2017,06,26,07,26,15.50
2017,06,26,07,27,15.60
2017,06,26,07,28,15.80
2017,06,26,07,29,15.90
2017,06,26,07,30,16.10
2017,06,26,07,31,16.20
2017,06,26,07,32,16.40
2017,06,26,07,33,16.50
2017,06,26,07,34,16.60
2017,06,26,07,35,16.70
2017,06,26,07,36,16.70
2017,06,26,07,37,16.80
2017,06,26,07,38,16.90
2017,06,26,07,39,16.90
2017,06,26,07,40,16.80
2017,06,26,07,41,16.80
2017,06,26,07,42,16.80
2017,06,26,07,43,16.70
2017,06,26,07,44,16.70
2017,06,26,07,45,16.70
2017,06,26,07,46,16.70
2017,06,26,07,47,16.80
2017,06,26,07,48,16.80
2017,06,26,07,49,16.90
2017,06,26,07,50,17.00
2017,06,26,07,51,17.00
2017,06,26,07,52,17.00
2017,06,26,07,53,17.00
2017,06,26,07,54,16.90
2017,06,26,07,55,16.80
2017,06,26,07,56,16.70
2017,06,26,07,57,16.70
2017,06,26,07,58,16.70
2017,06,26,07,59,16.70
2017,06,26,08,00,16.60
2017,06,26,08,01,16.50
2017,06,26,08,02,16.30
2017,06,26,08,03,16.20
2017,06,26,08,04,16.10
2017,06,26,08,05,15.90
2017,06,26,08,06,15.80
2017,06,26,08,07,15.80
2017,06,26,08,08,15.70
2017,06,26,08,09,15.60
2017,06,26,08,10,15.40
2017,06,26,08,11,15.20
2017,06,26,08,12,15.00
2017,06,26,08,13,14.80
2017,06,26,08,14,14.60
2017,06,26,08,15,14.50
2017,06,26,08,16,14.40
2017,06,26,08,17,14.40
2017,06,26,08,18,14.40
2017,06,26,08,19,14.50
2017,06,26,08,20,14.50
2017,06,26,08,21,14.60
2017,06,26,08,22,14.70
2017,06,26,08,23,14.70
2017,06,26,08,24,14.80
2017,06,26,08,25,14.80
2017,06,26,08,26,14.80
2017,06,26,08,27,14.90
2017,06,26,08,28,14.90
2017,06,26,08,29,14.90
2017,06,26,08,30,14.90
2017,06,26,08,31,14.90
2017,06,26,08,32,15.00
2017,06,26,08,33,15.00
2017,06,26,08,34,15.00
2017,06,26,08,35,14.90
2017,06,26,08,36,14.90
2017,06,26,08,37,14.90
2017,06,26,08,38,15.00
2017,06,26,08,39,15.00
2017,06,26,08,40,15.00
2017,06,26,08,41,15.00
2017,06,26,08,42,15.00
2017,06,26,08,43,15.00
2017,06,26,08,44,15.00
2017,06,26,08,45,14.90
2017,06,26,08,46,14.80
2017,06,26,08,47,14.80
2017,06,26,08,48,14.80
2017,06,26,08,49,14.90
2017,06,26,08,50,15.00
2017,06,26,08,51,15.10
2017,06,26,08,52,15.20
2017,06,26,08,53,15.30
2017,06,26,08,54,15.50
2017,06,26,08,55,15.40
2017,06,26,08,56,15.40
2017,06,26,08,57,15.40
2017,06,26,08,58,15.40
2017,06,26,08,59,15.40
2017,06,26,09,00,15.40
2017,06,26,09,01,15.40
2017,06,26,09,02,15.50
2017,06,26,09,03,15.50
2017,06,26,09,04,15.50
2017,06,26,09,05,15.50
2017,06,26,09,06,15.50
2017,06,26,09,07,15.60
2017,06,26,09,08,15.70
2017,06,26,09,09,15.80
2017,06,26,09,10,15.80
2017,06,26,09,11,15.90
2017,06,26,09,12,16.00
2017,06,26,09,13,16.10
2017,06,26,09,14,16.20
2017,06,26,09,15,16.40
2017,06,26,09,16,16.50
2017,06,26,09,17,16.70
2017,06,26,09,18,16.80
2017,06,26,09,19,17.00
2017,06,26,09,20,17.10
2017,06,26,09,21,17.20
2017,06,26,09,22,17.10
2017,06,26,09,23,17.00
2017,06,26,09,24,16.80
2017,06,26,09,25,16.70
2017,06,26,09,26,16.50
2017,06,26,09,27,16.40
2017,06,26,09,28,16.30
2017,06,26,09,29,16.10
2017,06,26,09,30,16.10
2017,06,26,09,31,16.00
2017,06,26,09,32,15.90
2017,06,26,09,33,15.90
2017,06,26,09,34,15.90
2017,06,26,09,35,15.90
2017,06,26,09,36,16.00
2017,06,26,09,37,16.10
2017,06,26,09,38,16.10
2017,06,26,09,39,16.10
2017,06,26,09,40,16.20
2017,06,26,09,41,16.30
2017,06,26,09,42,16.40
2017,06,26,09,43,16.40
2017,06,26,09,44,16.40
2017,06,26,09,45,16.50
2017,06,26,09,46,16.60
2017,06,26,09,47,16.70
2017,06,26,09,48,16.70
2017,06,26,09,49,16.70
2017,06,26,09,50,16.70
2017,06,26,09,51,16.70
2017,06,26,09,52,16.70
2017,06,26,09,53,16.60
2017,06,26,09,54,16.60
2017,06,26,09,55,16.60
2017,06,26,09,56,16.60
2017,06,26,09,57,16.70
2017,06,26,09,58,16.70
2017,06,26,09,59,16.70
2017,06,26,10,00,16.70
2017,06,26,10,01,16.60
2017,06,26,10,02,16.60
2017,06,26,10,03,16.50
2017,06,26,10,04,16.40
2017,06,26,10,05,16.40
2017,06,26,10,06,16.40
2017,06,26,10,07,16.40
2017,06,26,10,08,16.40
2017,06,26,10,09,16.40
2017,06,26,10,10,16.40
2017,06,26,10,11,16.30
2017,06,26,10,12,16.20
2017,06,26,10,13,16.20
2017,06,26,10,14,16.10
2017,06,26,10,15,16.10
2017,06,26,10,16,16.10
2017,06,26,10,17,16.10
2017,06,26,10,18,16.00
2017,06,26,10,19,16.10
2017,06,26,10,20,16.00
2017,06,26,10,21,15.90
2017,06,26,10,22,15.90
2017,06,26,10,23,16.00
2017,06,26,10,24,16.00
2017,06,26,10,25,15.90
2017,06,26,10,26,16.00
2017,06,26,10,27,16.10
2017,06,26,10,28,16.20
2017,06,26,10,29,16.20
2017,06,26,10,30,16.30
2017,06,26,10,31,16.40
2017,06,26,10,32,16.40
2017,06,26,10,33,16.30
2017,06,26,10,34,16.10
2017,06,26,10,35,16.00
2017,06,26,10,36,15.90
2017,06,26,10,37,15.90
2017,06,26,10,38,15.80
2017,06,26,10,39,15.80
2017,06,26,10,40,15.70
2017,06,26,10,41,15.50
2017,06,26,10,42,15.30
2017,06,26,10,43,15.10
2017,06,26,10,44,15.00
2017,06,26,10,45,15.00
2017,06,26,10,46,15.00
2017,06,26,10,47,15.00
2017,06,26,10,48,15.00
2017,06,26,10,49,15.10
2017,06,26,10,50,15.10
2017,06,26,10,51,14.90
2017,06,26,10,52,14.80
2017,06,26,10,53,14.90
2017,06,26,10,54,15.00
2017,06,26,10,55,15.10
2017,06,26,10,56,15.10
2017,06,26,10,57,15.20
2017,06,26,10,58,15.10
2017,06,26,10,59,15.10
2017,06,26,11,00,15.00
2017,06,26,11,01,15.00
2017,06,26,11,02,15.10
2017,06,26,11,03,15.00
2017,06,26,11,04,14.90
2017,06,26,11,05,14.90
2017,06,26,11,06,14.90
2017,06,26,11,07,14.90
2017,06,26,11,08,14.90
2017,06,26,11,09,15.00
2017,06,26,11,10,15.00
2017,06,26,11,11,15.00
2017,06,26,11,12,14.90
2017,06,26,11,13,14.80
2017,06,26,11,14,14.80
2017,06,26,11,15,14.80
2017,06,26,11,16,15.00
2017,06,26,11,17,15.10
2017,06,26,11,18,15.30
2017,06,26,11,19,15.40
2017,06,26,11,20,15.50
2017,06,26,11,21,15.60
2017,06,26,11,22,15.70
2017,06,26,11,23,15.70
2017,06,26,11,24,15.70
2017,06,26,11,25,15.70
2017,06,26,11,26,15.70
2017,06,26,11,27,15.80
2017,06,26,11,28,15.80
2017,06,26,11,29,15.70
2017,06,26,11,30,15.60
2017,06,26,11,31,15.40
2017,06,26,11,32,15.30
2017,06,26,11,33,15.10
2017,06,26,11,34,15.00
2017,06,26,11,35,14.90
2017,06,26,11,36,14.80
2017,06,26,11,37,14.80
2017,06,26,11,38,14.70
2017,06,26,11,39,14.60
2017,06,26,11,40,14.50
2017,06,26,11,41,14.50
2017,06,26,11,42,14.50
2017,06,26,11,43,14.40
2017,06,26,11,44,14.30
2017,06,26,11,45,14.40
2017,06,26,11,46,14.60
2017,06,26,11,47,14.80
2017,06,26,11,48,14.90
2017,06,26,11,49,15.00
2017,06,26,11,50,15.30
2017,06,26,11,51,15.50
2017,06,26,11,52,15.50
2017,06,26,11,53,15.50
2017,06,26,11,54,15.50
2017,06,26,11,55,15.40
2017,06,26,11,56,15.30
2017,06,26,11,57,15.30
2017,06,26,11,58,15.30
2017,06,26,11,59,15.20
2017,06,26,12,00,15.10
2017,06,26,12,01,15.10
2017,06,26,12,02,15.10
2017,06,26,12,03,15.00
2017,06,26,12,04,15.10
2017,06,26,12,05,15.10
2017,06,26,12,06,15.10
2017,06,26,12,07,15.10
2017,06,26,12,08,15.20
2017,06,26,12,09,15.30
2017,06,26,12,10,15.20
2017,06,26,12,11,15.30
2017,06,26,12,12,15.40
2017,06,26,12,13,15.50
2017,06,26,12,14,15.60
2017,06,26,12,15,15.70
2017,06,26,12,16,15.70
2017,06,26,12,17,15.60
2017,06,26,12,18,15.50
2017,06,26,12,19,15.40
2017,06,26,12,20,15.40
2017,06,26,12,21,15.30
2017,06,26,12,22,15.30
2017,06,26,12,23,15.10
2017,06,26,12,24,15.00
2017,06,26,12,25,15.10
2017,06,26,12,26,15.20
2017,06,26,12,27,15.30
2017,06,26,12,28,15.40
2017,06,26,12,29,15.50
2017,06,26,12,30,15.50
2017,06,26,12,31,15.50
2017,06,26,12,32,15.60
2017,06,26,12,33,15.60
2017,06,26,12,34,15.80
2017,06,26,12,35,15.80
2017,06,26,12,36,16.00
2017,06,26,12,37,16.10
2017,06,26,12,38,16.10
2017,06,26,12,39,16.20
2017,06,26,12,40,16.30
2017,06,26,12,41,16.40
2017,06,26,12,42,16.50
2017,06,26,12,43,16.40
2017,06,26,12,44,16.40
2017,06,26,12,45,16.40
2017,06,26,12,46,16.40
2017,06,26,12,47,16.50
2017,06,26,12,48,16.60
2017,06,26,12,49,16.70
2017,06,26,12,50,16.80
2017,06,26,12,51,16.90
2017,06,26,12,52,16.90
2017,06,26,12,53,16.90
2017,06,26,12,54,16.90
2017,06,26,12,55,17.00
2017,06,26,12,56,17.00
2017,06,26,12,57,17.00
2017,06,26,12,58,17.00
2017,06,26,12,59,16.80
2017,06,26,13,00,16.50
2017,06,26,13,01,16.40
2017,06,26,13,02,16.40
2017,06,26,13,03,16.40
2017,06,26,13,04,16.50
2017,06,26,13,05,16.70
2017,06,26,13,06,16.70
2017,06,26,13,07,16.60
2017,06,26,13,08,16.60
2017,06,26,13,09,16.60
2017,06,26,13,10,16.60
2017,06,26,13,11,16.60
2017,06,26,13,12,16.40
2017,06,26,13,13,16.30
2017,06,26,13,14,16.20
2017,06,26,13,15,16.10
2017,06,26,13,16,16.00
2017,06,26,13,17,15.90
2017,06,26,13,18,15.80
2017,06,26,13,19,15.70
2017,06,26,13,20,15.70
2017,06,26,13,21,15.80
2017,06,26,13,22,15.90
2017,06,26,13,23,15.90
2017,06,26,13,24,16.00
2017,06,26,13,25,16.10
2017,06,26,13,26,16.20
2017,06,26,13,27,16.30
2017,06,26,13,28,16.30
2017,06,26,13,29,16.50
2017,06,26,13,30,16.60
2017,06,26,13,31,16.90
2017,06,26,13,32,17.20
2017,06,26,13,33,17.30
2017,06,26,13,34,17.10
2017,06,26,13,35,17.00
2017,06,26,13,36,17.10
2017,06,26,13,37,17.00
2017,06,26,13,38,16.90
2017,06,26,13,39,17.00
2017,06,26,13,40,17.00
2017,06,26,13,41,17.00
2017,06,26,13,42,16.90
2017,06,26,13,43,16.90
2017,06,26,13,44,16.90
2017,06,26,13,45,17.00
2017,06,26,13,46,17.00
2017,06,26,13,47,17.10
2017,06,26,13,48,17.20
2017,06,26,13,49,17.30
2017,06,26,13,50,17.50
2017,06,26,13,51,17.70
2017,06,26,13,52,17.80
2017,06,26,13,53,17.90
2017,06,26,13,54,18.10
2017,06,26,13,55,18.10
2017,06,26,13,56,18.20
2017,06,26,13,57,18.30
2017,06,26,13,58,18.50
2017,06,26,13,59,18.40
2017,06,26,14,00,18.20
2017,06,26,14,01,18.20
2017,06,26,14,02,18.30
2017,06,26,14,03,18.40
2017,06,26,14,04,18.50
2017,06,26,14,05,18.70
2017,06,26,14,06,18.90
2017,06,26,14,07,19.00
2017,06,26,14,08,19.10
2017,06,26,14,09,19.20
2017,06,26,14,10,19.40
2017,06,26,14,11,19.70
2017,06,26,14,12,19.90
2017,06,26,14,13,20.30
2017,06,26,14,14,20.50
2017,06,26,14,15,20.70
2017,06,26,14,16,20.90
2017,06,26,14,17,21.10
2017,06,26,14,18,21.30
2017,06,26,14,19,21.40
2017,06,26,14,20,21.60
2017,06,26,14,21,21.70
2017,06,26,14,22,21.70
2017,06,26,14,23,21.90
2017,06,26,14,24,22.00
2017,06,26,14,25,22.10
2017,06,26,14,26,22.10
2017,06,26,14,27,22.10
2017,06,26,14,28,22.20
2017,06,26,14,29,22.30
2017,06,26,14,30,22.60
2017,06,26,14,31,22.70
2017,06,26,14,32,22.80
2017,06,26,14,33,22.80
2017,06,26,14,34,22.80
2017,06,26,14,35,22.70
2017,06,26,14,36,22.70
2017,06,26,14,37,22.70
2017,06,26,14,38,22.70
2017,06,26,14,39,22.80
2017,06,26,14,40,23.00
2017,06,26,14,41,23.10
2017,06,26,14,42,23.20
2017,06,26,14,43,23.20
2017,06,26,14,44,23.20
2017,06,26,14,45,23.30
2017,06,26,14,46,23.50
2017,06,26,14,47,23.60
2017,06,26,14,48,23.70
2017,06,26,14,49,23.70
2017,06,26,14,50,23.70
2017,06,26,14,51,23.70
2017,06,26,14,52,23.80
2017,06,26,14,53,23.80
2017,06,26,14,54,23.80
2017,06,26,14,55,23.90
2017,06,26,14,56,24.10
2017,06,26,14,57,24.20
2017,06,26,14,58,24.50
2017,06,26,14,59,24.80
2017,06,26,15,00,24.90
2017,06,26,15,01,25.00
2017,06,26,15,02,25.00
2017,06,26,15,03,25.20
2017,06,26,15,04,25.30
2017,06,26,15,05,25.40
2017,06,26,15,06,25.40
2017,06,26,15,07,25.60
2017,06,26,15,08,25.60
2017,06,26,15,09,25.70
2017,06,26,15,10,25.80
2017,06,26,15,11,25.90
2017,06,26,15,12,26.00
2017,06,26,15,13,26.10
2017,06,26,15,14,26.20
2017,06,26,15,15,26.40
2017,06,26,15,16,26.50
2017,06,26,15,17,26.60
2017,06,26,15,18,26.80
2017,06,26,15,19,27.00
2017,06,26,15,20,27.00
2017,06,26,15,21,27.10
2017,06,26,15,22,27.30
2017,06,26,15,23,27.40
2017,06,26,15,24,27.50
2017,06,26,15,25,27.60
2017,06,26,15,26,27.70
2017,06,26,15,27,27.80
2017,06,26,15,28,27.80
2017,06,26,15,29,27.90
2017,06,26,15,30,27.90
2017,06,26,15,31,27.90
2017,06,26,15,32,27.90
2017,06,26,15,33,27.90
2017,06,26,15,34,27.80
2017,06,26,15,35,27.80
2017,06,26,15,36,27.80
2017,06,26,15,37,27.70
2017,06,26,15,38,27.70
2017,06,26,15,39,27.70
2017,06,26,15,40,27.80
2017,06,26,15,41,27.80
2017,06,26,15,42,27.70
2017,06,26,15,43,27.70
2017,06,26,15,44,27.60
2017,06,26,15,45,27.40
2017,06,26,15,46,27.30
2017,06,26,15,47,27.20
2017,06,26,15,48,27.20
2017,06,26,15,49,27.20
2017,06,26,15,50,27.20
2017,06,26,15,51,27.30
2017,06,26,15,52,27.20
2017,06,26,15,53,27.20
2017,06,26,15,54,27.10
2017,06,26,15,55,27.10
2017,06,26,15,56,27.00
2017,06,26,15,57,26.90
2017,06,26,15,58,26.90
2017,06,26,15,59,26.90
2017,06,26,16,00,27.00
2017,06,26,16,01,26.90
2017,06,26,16,02,26.90
2017,06,26,16,03,26.90
2017,06,26,16,04,26.80
2017,06,26,16,05,26.80
2017,06,26,16,06,26.80
2017,06,26,16,07,26.70
2017,06,26,16,08,26.60
2017,06,26,16,09,26.60
2017,06,26,16,10,26.50
2017,06,26,16,11,26.40
2017,06,26,16,12,26.40
2017,06,26,16,13,26.30
2017,06,26,16,14,26.30
2017,06,26,16,15,26.10
2017,06,26,16,16,26.10
2017,06,26,16,17,26.00
2017,06,26,16,18,26.00
2017,06,26,16,19,25.90
2017,06,26,16,20,25.90
2017,06,26,16,21,25.70
2017,06,26,16,22,25.80
2017,06,26,16,23,25.80
2017,06,26,16,24,25.70
2017,06,26,16,25,25.60
2017,06,26,16,26,25.50
2017,06,26,16,27,25.40
2017,06,26,16,28,25.20
2017,06,26,16,29,25.10
2017,06,26,16,30,25.10
2017,06,26,16,31,25.10
2017,06,26,16,32,25.00
2017,06,26,16,33,24.90
2017,06,26,16,34,24.90
2017,06,26,16,35,24.90
2017,06,26,16,36,24.90
2017,06,26,16,37,24.90
2017,06,26,16,38,24.90
2017,06,26,16,39,25.00
2017,06,26,16,40,24.90
2017,06,26,16,41,24.90
2017,06,26,16,42,24.90
2017,06,26,16,43,24.80
2017,06,26,16,44,24.60
2017,06,26,16,45,24.40
2017,06,26,16,46,24.30
2017,06,26,16,47,24.30
2017,06,26,16,48,24.30
2017,06,26,16,49,24.30
2017,06,26,16,50,24.20
2017,06,26,16,51,24.20
2017,06,26,16,52,24.20
2017,06,26,16,53,24.20
2017,06,26,16,54,24.30
2017,06,26,16,55,24.30
2017,06,26,16,56,24.40
2017,06,26,16,57,24.30
2017,06,26,16,58,24.30
2017,06,26,16,59,24.30
2017,06,26,17,00,24.40
2017,06,26,17,01,24.50
2017,06,26,17,02,24.60
2017,06,26,17,03,24.70
2017,06,26,17,04,24.90
2017,06,26,17,05,24.90
2017,06,26,17,06,24.90
2017,06,26,17,07,24.90
2017,06,26,17,08,24.90
2017,06,26,17,09,25.00
2017,06,26,17,10,25.10
2017,06,26,17,11,25.20
2017,06,26,17,12,25.30
2017,06,26,17,13,25.30
2017,06,26,17,14,25.30
2017,06,26,17,15,25.30
2017,06,26,17,16,25.20
2017,06,26,17,17,25.10
2017,06,26,17,18,25.00
2017,06,26,17,19,25.00